When you browse on this site, cookies collect data to enhance your experience and personalize the content and advertising you see.
Visit our Privacy Policy to learn more. By continuing to use the site, you agree to this use of cookies and data.
  • In Czech Republic
  • List of Countries
  • For 7 days
  • Water Temperature
  • Weather Map
  • Weather Widgets
  • user-avatar
    Login

    Hourly Weather Galeevo

    Today, 25 May, Monday

    Time Temperature Precipitation Wind Pressure Humidity
    00:00 +9°C° 0 mm 3 mps 755 mmHg 89%
    01:00 +8°C° 0 mm 3 mps 755 mmHg 91%
    02:00 +8°C° 0 mm 2 mps 756 mmHg 91%
    03:00 +8°C° 0 mm 2 mps 756 mmHg 91%
    04:00 +7°C° 0 mm 2 mps 756 mmHg 91%
    05:00 +8°C° 0 mm 2 mps 756 mmHg 87%
    06:00 +9°C° 0 mm 2 mps 756 mmHg 84%
    07:00 +10°C° 0 mm 2 mps 756 mmHg 81%
    08:00 +10°C° 0.3 mm 2 mps 756 mmHg 81%
    09:00 +10°C° 0.3 mm 2 mps 756 mmHg 81%
    10:00 +11°C° 0 mm 3 mps 757 mmHg 83%
    11:00 +12°C° 0.2 mm 3 mps 757 mmHg 76%
    12:00 +13°C° 0.2 mm 4 mps 757 mmHg 70%
    13:00 +14°C° 0.2 mm 4 mps 757 mmHg 63%
    14:00 +15°C° 0.1 mm 5 mps 757 mmHg 62%
    15:00 +15°C° 0.1 mm 5 mps 757 mmHg 61%
    16:00 +16°C° 0 mm 5 mps 758 mmHg 58%
    17:00 +15°C° 0 mm 5 mps 758 mmHg 62%
    18:00 +15°C° 0 mm 4 mps 758 mmHg 66%
    19:00 +16°C° 0 mm 3 mps 758 mmHg 70%
    20:00 +13°C° 0 mm 3 mps 759 mmHg 74%
    21:00 +12°C° 0 mm 3 mps 759 mmHg 77%
    22:00 +10°C° 0 mm 3 mps 760 mmHg 81%
    23:00 +10°C° 0 mm 3 mps 760 mmHg 82%

    Tomorrow, 26 May, Tuesday

    Time Temperature Precipitation Wind Pressure Humidity
    00:00 +9°C° 0 mm 2 mps 760 mmHg 83%
    01:00 +8°C° 0 mm 2 mps 760 mmHg 85%
    02:00 +9°C° 0 mm 1 mps 761 mmHg 84%
    03:00 +9°C° 0 mm 1 mps 761 mmHg 83%
    04:00 +8°C° 0 mm 1 mps 762 mmHg 83%
    05:00 +10°C° 0 mm 1 mps 762 mmHg 78%
    06:00 +11°C° 0 mm 1 mps 762 mmHg 74%
    07:00 +13°C° 0 mm 1 mps 763 mmHg 69%
    08:00 +14°C° 0 mm 1 mps 763 mmHg 65%
    09:00 +15°C° 0 mm 2 mps 763 mmHg 60%
    10:00 +17°C° 0 mm 2 mps 763 mmHg 55%
    11:00 +17°C° 0 mm 2 mps 763 mmHg 53%
    12:00 +18°C° 0 mm 3 mps 762 mmHg 51%
    13:00 +19°C° 0 mm 3 mps 762 mmHg 49%
    14:00 +19°C° 0 mm 3 mps 762 mmHg 49%
    15:00 +19°C° 0 mm 3 mps 762 mmHg 49%
    16:00 +20°C° 0 mm 4 mps 761 mmHg 49%
    17:00 +19°C° 0 mm 4 mps 761 mmHg 55%
    18:00 +18°C° 0 mm 4 mps 760 mmHg 60%
    19:00 +17°C° 0 mm 4 mps 760 mmHg 66%
    20:00 +15°C° 0 mm 4 mps 760 mmHg 69%
    21:00 +14°C° 0 mm 4 mps 759 mmHg 72%
    22:00 +12°C° 0 mm 4 mps 759 mmHg 74%
    23:00 +12°C° 0 mm 5 mps 758 mmHg 75%

    Day after tomorrow, 27 May, Wednesday

    Time Temperature Precipitation Wind Pressure Humidity
    00:00 +12°C° 0 mm 5 mps 758 mmHg 75%
    01:00 +11°C° 0 mm 6 mps 757 mmHg 75%
    02:00 +11°C° 0 mm 6 mps 756 mmHg 75%
    03:00 +11°C° 0 mm 6 mps 756 mmHg 76%
    04:00 +10°C° 0 mm 6 mps 755 mmHg 76%
    05:00 +12°C° 0.5 mm 5 mps 755 mmHg 77%
    06:00 +13°C° 0.5 mm 5 mps 754 mmHg 79%
    07:00 +14°C° 0.5 mm 4 mps 754 mmHg 80%
    08:00 +15°C° 0.8 mm 5 mps 753 mmHg 77%
    09:00 +17°C° 0.8 mm 6 mps 753 mmHg 74%
    10:00 +18°C° 0.8 mm 7 mps 752 mmHg 71%
    11:00 +21°C° 0 mm 7 mps 752 mmHg 69%
    12:00 +23°C° 0 mm 7 mps 751 mmHg 66%
    13:00 +24°C° 0 mm 7 mps 751 mmHg 63%
    14:00 +24°C° 0 mm 6 mps 750 mmHg 67%
    15:00 +25°C° 0 mm 5 mps 750 mmHg 70%
    16:00 +25°C° 0 mm 4 mps 750 mmHg 73%
    17:00 +23°C° 0.1 mm 5 mps 750 mmHg 76%
    18:00 +22°C° 0.1 mm 5 mps 750 mmHg 79%
    19:00 +21°C° 0.1 mm 5 mps 750 mmHg 83%
    20:00 +20°C° 0 mm 6 mps 750 mmHg 85%
    21:00 +19°C° 0 mm 6 mps 750 mmHg 88%
    22:00 +17°C° 0 mm 7 mps 751 mmHg 90%
    23:00 +16°C° 0 mm 6 mps 751 mmHg 91%

    28 May, Thursday

    Time Temperature Precipitation Wind Pressure Humidity
    00:00 +15°C° 0 mm 6 mps 751 mmHg 91%
    01:00 +15°C° 0 mm 6 mps 751 mmHg 92%
    02:00 +14°C° 0 mm 5 mps 752 mmHg 90%
    03:00 +14°C° 0 mm 5 mps 752 mmHg 89%
    04:00 +14°C° 0 mm 4 mps 752 mmHg 87%
    05:00 +14°C° 0 mm 4 mps 752 mmHg 87%
    06:00 +14°C° 0 mm 4 mps 753 mmHg 87%
    07:00 +14°C° 0 mm 4 mps 753 mmHg 87%
    08:00 +14°C° 0 mm 4 mps 753 mmHg 86%
    09:00 +14°C° 0 mm 4 mps 753 mmHg 85%
    10:00 +14°C° 0 mm 4 mps 754 mmHg 83%
    11:00 +15°C° 0 mm 4 mps 754 mmHg 82%
    12:00 +15°C° 0 mm 4 mps 754 mmHg 81%
    13:00 +15°C° 0 mm 4 mps 754 mmHg 79%
    14:00 +17°C° 0 mm 4 mps 754 mmHg 77%
    15:00 +17°C° 0 mm 4 mps 754 mmHg 75%
    16:00 +18°C° 0 mm 3 mps 754 mmHg 73%
    17:00 +18°C° 0 mm 3 mps 754 mmHg 75%
    18:00 +17°C° 0 mm 2 mps 755 mmHg 76%
    19:00 +17°C° 0 mm 2 mps 755 mmHg 77%
    20:00 +16°C° 0 mm 2 mps 755 mmHg 82%
    21:00 +15°C° 0 mm 2 mps 755 mmHg 86%
    22:00 +13°C° 0 mm 2 mps 755 mmHg 90%
    23:00 +13°C° 0 mm 1 mps 755 mmHg 90%

    29 May, Friday

    Time Temperature Precipitation Wind Pressure Humidity
    00:00 +12°C° 0 mm 1 mps 755 mmHg 91%
    01:00 +12°C° 0 mm 1 mps 755 mmHg 91%
    02:00 +12°C° 0 mm 1 mps 755 mmHg 92%
    03:00 +11°C° 0 mm 1 mps 755 mmHg 92%
    04:00 +11°C° 0 mm 1 mps 755 mmHg 93%
    05:00 +12°C° 0 mm 2 mps 756 mmHg 88%
    06:00 +14°C° 0 mm 2 mps 756 mmHg 83%
    07:00 +15°C° 0 mm 2 mps 756 mmHg 78%
    08:00 +16°C° 0 mm 2 mps 756 mmHg 72%
    09:00 +18°C° 0 mm 2 mps 756 mmHg 66%
    10:00 +19°C° 0 mm 2 mps 756 mmHg 60%
    11:00 +20°C° 0 mm 2 mps 756 mmHg 57%
    12:00 +21°C° 0 mm 2 mps 756 mmHg 54%
    13:00 +23°C° 0 mm 2 mps 756 mmHg 50%
    14:00 +23°C° 0 mm 2 mps 755 mmHg 50%
    15:00 +22°C° 0 mm 3 mps 755 mmHg 50%
    16:00 +24°C° 0 mm 3 mps 755 mmHg 49%
    17:00 +23°C° 0 mm 2 mps 755 mmHg 55%
    18:00 +21°C° 0 mm 2 mps 755 mmHg 60%
    19:00 +21°C° 0 mm 2 mps 755 mmHg 66%
    20:00 +19°C° 0 mm 2 mps 755 mmHg 70%
    21:00 +17°C° 0 mm 2 mps 755 mmHg 73%
    22:00 +16°C° 0 mm 2 mps 755 mmHg 77%
    23:00 +15°C° 0 mm 2 mps 755 mmHg 77%

    30 May, Saturday

    Time Temperature Precipitation Wind Pressure Humidity
    00:00 +14°C° 0 mm 3 mps 755 mmHg 77%
    01:00 +13°C° 0 mm 3 mps 755 mmHg 76%
    02:00 +13°C° 0 mm 3 mps 755 mmHg 79%
    03:00 +12°C° 0 mm 3 mps 754 mmHg 81%
    04:00 +12°C° 0 mm 3 mps 754 mmHg 83%
    05:00 +13°C° 0 mm 4 mps 754 mmHg 79%
    06:00 +15°C° 0 mm 4 mps 754 mmHg 75%
    07:00 +16°C° 0 mm 5 mps 754 mmHg 71%
    08:00 +17°C° 0 mm 5 mps 753 mmHg 67%
    09:00 +20°C° 0 mm 5 mps 753 mmHg 63%
    10:00 +22°C° 0 mm 6 mps 753 mmHg 58%
    11:00 +23°C° 0 mm 6 mps 753 mmHg 56%
    12:00 +24°C° 0 mm 6 mps 753 mmHg 54%
    13:00 +26°C° 0 mm 6 mps 752 mmHg 52%
    14:00 +26°C° 0 mm 6 mps 752 mmHg 53%
    15:00 +26°C° 0 mm 5 mps 751 mmHg 55%
    16:00 +27°C° 0 mm 5 mps 751 mmHg 56%
    17:00 +26°C° 0 mm 5 mps 750 mmHg 61%
    18:00 +26°C° 0 mm 4 mps 750 mmHg 66%
    19:00 +25°C° 0 mm 4 mps 750 mmHg 72%
    20:00 +23°C° 0 mm 4 mps 749 mmHg 75%
    21:00 +21°C° 0 mm 4 mps 749 mmHg 78%
    22:00 +20°C° 0 mm 4 mps 749 mmHg 81%
    23:00 +20°C° 0 mm 4 mps 748 mmHg 83%
    Show more